Location: ????????
(55.6189°N, 38.3031°E)
Time: 22:07:29
(UTC+00:00)

Cosmos 1153 Rocket - Pass Details

Date: 15 November 2019
Orbit: 953 x 1006 km, 82.9° (Epoch: 05 December)

Event Time Altitude Azimuth Distance (km) Brightness Sun altitude
Rises 02:30:53 0° 191° (S) 3,625 7.4 -20.7°
Reaches altitude 10° 02:33:22 10° 192° (SSW) 2,680 6.7 -20.4°
Maximum altitude 02:39:30 84° 281° (W) 967 4.4 -19.5°
Drops below altitude 10° 02:45:42 10° 11° (N) 2,701 6.9 -18.7°
Sets 02:48:12 0° 12° (NNE) 3,655 7.6 -18.3°
